Location: Boiro
(42.6475°N, 8.8834°W)
Time: 14:18:27
(UTC+02:00)

Explorer 7 - Pass Details

Date: 04 July 2022
Orbit: 482 x 668 km, 50.3° (Epoch: 15 August)

Event Time Altitude Azimuth Distance (km) Brightness Sun altitude
Rises 01:26:55 0° 265° (W) 3,005 10.8 -22.3°
Reaches altitude 10° 01:29:24 10° 273° (W) 2,093 10.0 -22.5°
Maximum altitude 01:33:59 41° 344° (NNW) 958 8.5 -22.7°
Drops below altitude 10° 01:38:30 10° 55° (NE) 2,052 9.9 -22.9°
Sets 01:40:55 0° 63° (ENE) 2,940 10.7 -23.1°
